ONEWEB-0088, 45457

Orbit data source: Space-Track

ONEWEB-0088, 45457 is a payload satellite owned by One Web (UK) in LEO that was launched on Sat, 21 Mar 2020 UTC via a SOYUZ-2-1B launch vehicle from the Tyuratam Missile And Space Complex (TTMTR). Payload-class satellites include a variety of spacecraft equipped with specific instruments for various scientific and technological missions. These include communications satellites like Starlink; space stations such as the ISS; scientific satellites like the Hubble; Earth observation satellites from companies like Planet Labs, Umbra, and HawkEye 360; GPS; miniature CubeSats for education and research; and military/defense satellites.

Loading next visibility...
Identifier
45457, 2020-020AK
Orbit
LEO
Country
Flag of UKUK
Related business
Manufacturer
One Web
Mission
Operational Commercial Communications
Bus & Motor
ARROW, Unknown motor
Mass
148 kg wet, ~140 kg dry
Launch date (UTC)
2020-03-21 (6 years ago)
Launch vehicle
SOYUZ-2-1B
Launch site
Tyuratam Missile And Space Complex (TTMTR)
Object type
Payload
Rocket body
Debris
Shape & HBR
Trap Box + 2 Pan, 6.7 m
Radar Cross Section
3.464 m², Large (>1 m²)

Expand to show TLE details & history
Last TLE update: 11 hours ago

TLE from 11 hours ago
0 ONEWEB-0088
1 45457U 20020AK  25311.25873148 -.00000198  00000-0 -59539-3 0  9993
2 45457  87.8872  65.1955 0001446 102.5667 257.5623 13.11417215273457
Epoch: 2025-11-07T06:12Z
TLE epoch observation values (Epoch: 2025-11-07T06:12:34.399Z)
Latitude
-0.00002°
Longitude
-74.6531°
Altitude
1,220.808 km
Speed
7.244 km/s
True Right ascension
04h 20m 46s
True Declination
0° 00' 00"
Sunlit
Object was in full shadow at epoch
Visualization orbit readout
Latitude
Unknown
Longitude
Unknown
Altitude
Unknown
Speed
Unknown
Apparent Right ascension
Unknown
Apparent Declination
Unknown
Sunlit
N/A
Visualization observer readout
Local Sidereal Time
13:16:32
Azimuth
Unknown
Elevation
Unknown
Doppler factor
Unknown
Orbital elements
Apogee altitude
1,215.898 km
Perigee altitude
1,213.702 km
Semi-major axis
7,592.937 km
Eccentricity
0.00014
Inclination
87.8872°
RAAN
65.1955°
Arg. of periapsis
102.5667°
True anomaly
257.54612°
Mean anomaly
257.5623°
Eccentric anomaly
257.55421°
Mean motion
3.28041 °/min
Orbital period
109.74 mins
BSTAR
-0.00059539
Loading maneuver chart data...
Computing Atmospheric mass density...
Loading historical data...
Loading historical data...
Loading historical data...
Loading historical data...
Loading historical data...
Loading historical data...
Loading historical data...

Documentation

Showing up to 5 results
|